Погода в Кяхте

Поиск расширенной информации на нашем сайте:

Полезная информация:

Новости сайта



02.01.2020
Опубликован Долгосрочный прогноз погоды по городам России и ближнего зарубежья на январь 2020 года.
Карты: Прогноз на январь и февраль 2020 года, Сравнение прогнозируемой аномалии приземной температуры воздуха на январь 2020 года по разным моделям.




Погода в Кяхте - сегодня

Время (UTC), дата Ветер
(°,м/с) 
Видим.   Явления Облачность Т
(°С)
Тd
(°С)
f(%) Тe
(°С)
Pmin
(гПа)
dP
(гПа)
Po
(мм)
O2
(г/м3)
Тmin Tmax R s Состояние
почвы
00 30.11.20 140 (ЮВ) н/о  слаб. снег  10/10 2000 м 
[Ac As]
-15.4 -18.5 77 -18  1044.8  0.8  706  303  -17.7    0.0  равномерный
сухой снег
100% 
03 30.11.20 130 (ЮВ) 20000 м  {снег}  10/10 2000 м 
[As trans]
-14.9 -17.7 79 -15  1045.3  0.6  706  302           
06 30.11.20 100 (В) 20000 м  {снег}  10/10 2000 м 
[As trans]
-13.3 -17.1 73 -15  1044.1  -0.5  706  300           
09 30.11.20 010 (С) 20000 м    10/4 2000 м средняя, верхняя 
[As trans|Cs]
-14.7 -18.1 75 -15  1045.2  0.5  706  302           
12 30.11.20 тихо ()   н/о    10/5 2000 м средняя, верхняя 
[As trans|Cs]
-16.2 -18.9 80 -16  1046.3  0.4  707  304    -13  0.0     
15 30.11.20 040 (СВ) н/о    10/4 2000 м средняя, верхняя 
[As trans|Cs]
-14.6 -17.7 77 -15  1045.1  -0.4  706  302           
18 30.11.20 040 (СВ) н/о    10/3 2000 м средняя, верхняя 
[As trans|Cs]
-14.5 -17.7 77 -15  1044.8  -0.2  706  302           
21 30.11.20 080 (В) н/о    10/3 2000 м средняя, верхняя 
[As trans|Cs]
-14.9 -18 77 -15  1044.9  -0.1  706  302           
00 01.12.20 тихо ()   н/о    10/4 2000 м средняя, верхняя 
[As trans|Cs]
-15.4 -18.3 78 -15  1045.2  0.1  706  303  -16.3      равномерный
сухой снег
100% 
03 01.12.20 110 (В) 20000 м    10/6 2000 м средняя, верхняя 
[Ac As|Ci fib]
-13.4 -17.2 73 -13  1044.4  706  300           
06 01.12.20 160 (Ю) 20000 м    10/4 2000 м средняя, верхняя 
[Ac As|Cs]
-11.5 -16.4 67 -13  1042.7  -0.9  705  298           
09 01.12.20 180 (Ю) 20000 м    8/3 2000 м средняя, верхняя 
[Ac lent|Ci fib]
-12.1 -16.6 69 -14  1042.2  -0.6  705  298           
12 01.12.20 160 (Ю) н/о    6/0 средняя, верхняя 
[Ac lent|Cs]
-12.9 -17.6 68 -15  1042.9  0.3  705  300    -10.9       
15 01.12.20 360 (С) н/о    8/3 2000 м средняя, верхняя 
[Ac lent|Cs]
-16 -19.3 76 -16  1044.9  0.6  706  303           
18 01.12.20 360 (С) н/о    4/0 верхняя 
[Cs]
-17.4 -20 80 -18  1045.9  0.4  706  305           
21 01.12.20 тихо ()   н/о    4/3 2000 м средняя, верхняя 
[Ac lent|Cs]
-19.2 -21.8 80 -19  1047  0.3  706  308           
00 02.12.20 тихо ()   н/о    8/4 2000 м средняя, верхняя 
[Ac trans|Ci fib]
-19.4 -22 80 -19  1048  0.8  707  308  -19.8      равномерный
сухой снег
100% 
03 02.12.20 тихо ()   20000 м    10/1 2000 м средняя, верхняя 
[Ac lent|Ci fib]
-13.8 -17.7 72 -14  1046.6  0.9  707  302  -19.9         
06 02.12.20 140 (ЮВ) 20000 м    10/0 верхняя 
[Ci fib]
-10.8 -16.9 61 -11  1044.8  -0.5  707  298           
09 02.12.20 360 (С) 20000 м    8/3 2000 м средняя, верхняя 
[Ac lent|Ci fib]
-13.7 -17.7 72 -14  1046.4  0.3  707  301           
12 02.12.20 100 (В) н/о    10/0 верхняя 
[Ci fib]
-17.1 -19.4 82 -17  1048.7  0.9  708  306    -10.7       
15 02.12.20 тихо ()   н/о    3/0 верхняя 
[Ci sp]
-18.4 -20.9 81 -18  1049.6  0.2  708  307           
18 02.12.20 тихо ()   н/о    3/0 верхняя 
[Ci sp]
-19 -21.4 81 -19  1049.8  708  308           
21 02.12.20 тихо ()   н/о    4/0 верхняя 
[Ci fib]
-20.4 -22.7 82 -20  1050.2  -0.2  708  310           
00 03.12.20 тихо ()   н/о    6/0 верхняя 
[Ci fib]
-20.7 -22.8 83 -21  1050.6  0.2  708  310  -20.9      равномерный
сухой снег
100% 
Время (UTC), дата Ветер
(°,м/с) 
Видим.   Явления Облачность Т
(°С)
Тd
(°С)
f(%) Тe
(°С)
Pmin
(гПа)
dP
(гПа)
Po
(мм)
O2
(г/м3)
Тmin Tmax R s Состояние
почвы

Для получения пояснительной информации подведите курсор к названию столбца.

ПОГОДА в Кяхте - архив

Всё, что Вы хотите узнать о погоде в Кяхте - удобно и подробно!

Выберите нужную дату (начиная с 1 января 2019* года) и нажмите кнопку "Найти".
Будут отображены архивные сводки погоды по пункту Кяхта, начиная с указанной даты.


Отображать данные в формате CSV (для использования в таблицах Excel)


Внимание! Наш архив погоды предназначен исключительно для личного некоммерческого использования в познавательных целях. Если Вам необходимы официальные справки о состоянии погоды (для производственных, юридических, коммерческих и т.п. целей), обращайтесь в органы Росгидромета.

*Примечание: данная дата относится к архиву по метеостанциям СССР (Россия, СНГ, Балтия).
Архив по метеостанциям Зарубежной Европы и Азии (кроме Китая) хранится 10 дней, по другим регионам земного шара (Китай, Африка, Америка, Австралия, Океания) - 1 день.

Кяхта - район местоположения метеостанции


Название, широта, долгота, высота метеостанции:
Кяхта 50.4°ш. 106.4°д. 797 м над ур. моря [Российская Федерация]

Дополнительная информация

В oтличие oт бoльшинства пoгoдных сайтoв мы публикуем пoдрoбную метеoинфoрмацию в детальнoм прoфессиoнальнoм фoрмате.

Характеристики температуры и влажнoсти вoздуха измеряются на высoте 2 м в тени вдали oт зданий и деревьев.
Скoрoсть ветра измеряется на высoте 10 м (на урoвне рoста челoвека скoрoсть ветра ниже в 1.5-2 раза). Если метеoстанция нахoдится в гoрoде или в лесу, тo скoрoсть ветра занижена на 2-4 м/с пo сравнению с oткрытым местoм. Скoрoсть ветра над акватoриями крупных рек и oзёр, а также на вершинах хoлмoв на 2-5 м/с выше, чем в oбычных услoвиях.
Атмoсфернoе давление в разных тoчках местнoсти мoжет значительнo oтличаться oт давления на метеoстанции, в зависимoсти oт услoвий рельефа (при пoдъёме на 10 м давление пoнижается примернo на 1 мм рт.ст.).